Simultaneous Nadir Overpasses (SNOs) Predictions

Prediction of SNOs over PacNW region [( 10.00, 139.50) to ( 22.70, 165.60)] between AQUA and NPP Satellites:

Table of predicted SNOs over PacNW region for the next 30.0 days since TLE Epoch: 8/2/2019
Index Date (AQUA) Time (AQUA) AQUA Lat,Lon Date (NPP) Time (NPP) NPP Lat,Lon Distance(km) Time Diff (sec)
1 08/05/2019 03:31:36 22.69, 147.54 08/05/2019 03:28:06 24.20, 145.33 280.35 210
2 08/10/2019 15:59:11 22.59, 147.49 08/10/2019 16:02:08 23.29, 144.54 312.52 177
3 08/18/2019 15:09:42 22.60, 159.86 08/18/2019 15:11:25 23.22, 157.21 280.01 103
4 08/21/2019 03:31:31 22.66, 147.55 08/21/2019 03:28:02 23.88, 145.42 257.11 209
5 08/26/2019 15:59:06 22.64, 147.51 08/26/2019 16:02:10 23.31, 144.55 312.65 184




NCC Satellite Simultaneous Nadir Overpasses (SNOs) Prediction Service
